| time (UTC) | temp F | wind direction | speed MPH | gust MPH | rain 1hr in | rain 24hr in | rain mn in | humidity % | barometer mb |
| 20260905095836 | 74 | 216 | 1.0 | 3.0 | 0.00 | 0.00 | 0.00 | 39 | 1019.8 |
| 20260905095335 | 74 | 211 | 2.0 | 4.0 | 0.00 | 0.00 | 0.00 | 39 | 1019.8 |
| 20260905094836 | 74 | 198 | 2.0 | 4.0 | 0.00 | 0.00 | 0.00 | 39 | 1019.9 |
| 20260905093836 | 74 | 196 | 2.0 | 3.0 | 0.00 | 0.00 | 0.00 | 37 | 1019.8 |
| 20260905084827 | 76 | 209 | 2.0 | 4.0 | 0.00 | 0.00 | 0.00 | 36 | 1019.8 |
| 20260905084325 | 76 | 215 | 2.0 | 4.0 | 0.00 | 0.00 | 0.00 | 36 | 1019.9 |
| 20260905083826 | 76 | 204 | 2.0 | 4.0 | 0.00 | 0.00 | 0.00 | 35 | 1019.9 |
| 20260905083325 | 76 | 191 | 2.0 | 4.0 | 0.00 | 0.00 | 0.00 | 35 | 1020.0 |
| 20260905082825 | 76 | 198 | 2.0 | 4.0 | 0.00 | 0.00 | 0.00 | 35 | 1019.9 |
| 20260905081824 | 75 | 202 | 2.0 | 3.0 | 0.00 | 0.00 | 0.00 | 36 | 1020.0 |
| 20260905081323 | 75 | 192 | 1.0 | 3.0 | 0.00 | 0.00 | 0.00 | 38 | 1020.0 |
| 20260905080821 | 75 | 192 | 0.0 | 3.0 | 0.00 | 0.00 | 0.00 | 38 | 1020.0 |
| 20260905080319 | 75 | 203 | 0.0 | 0.0 | 0.00 | 0.00 | 0.00 | 38 | 1020.0 |
| 20260905075817 | 75 | 203 | 1.0 | 2.0 | 0.00 | 0.00 | 0.00 | 39 | 1020.0 |
| 20260905074809 | 76 | 203 | 1.0 | 2.0 | 0.00 | 0.00 | 0.00 | 38 | 1020.0 |
| 20260905074310 | 76 | 234 | 0.0 | 2.0 | 0.00 | 0.00 | 0.00 | 38 | 1020.0 |
| 20260905073307 | 76 | 223 | 1.0 | 2.0 | 0.00 | 0.00 | 0.00 | 38 | 1020.0 |
| 20260905072807 | 76 | 223 | 1.0 | 2.0 | 0.00 | 0.00 | 0.00 | 38 | 1019.9 |
| 20260905071808 | 76 | 212 | 1.0 | 3.0 | 0.00 | 0.00 | 0.00 | 39 | 1019.9 |
| 20260905071301 | 76 | 201 | 1.0 | 4.0 | 0.00 | 0.00 | 0.00 | 39 | 1019.9 |
| 20260905070801 | 77 | 205 | 2.0 | 5.0 | 0.00 | 0.00 | 0.00 | 40 | 1019.9 |
| 20260905070301 | 76 | 200 | 2.0 | 5.0 | 0.00 | 0.00 | 0.00 | 41 | 1019.9 |
| 20260905065800 | 77 | 197 | 2.0 | 4.0 | 0.00 | 0.00 | 0.00 | 41 | 1019.8 |
| 20260905065300 | 77 | 207 | 2.0 | 4.0 | 0.00 | 0.00 | 0.00 | 42 | 1019.8 |
| 20260905064801 | 77 | 196 | 2.0 | 4.0 | 0.00 | 0.00 | 0.00 | 43 | 1019.8 |
| 20260905064303 | 77 | 198 | 3.0 | 7.0 | 0.00 | 0.00 | 0.00 | 43 | 1019.8 |
| 20260905062754 | 78 | 207 | 3.0 | 9.0 | 0.00 | 0.00 | 0.00 | 42 | 1019.8 |
| 20260905062254 | 78 | 183 | 3.0 | 9.0 | 0.00 | 0.00 | 0.00 | 42 | 1019.8 |
| 20260905061751 | 78 | 198 | 2.0 | 5.0 | 0.00 | 0.00 | 0.00 | 42 | 1019.8 |
| 20260905061250 | 77 | 203 | 2.0 | 4.0 | 0.00 | 0.00 | 0.00 | 43 | 1019.8 |
| 20260905060749 | 77 | 198 | 2.0 | 4.0 | 0.00 | 0.00 | 0.00 | 43 | 1019.8 |
| 20260905055746 | 77 | 187 | 2.0 | 5.0 | 0.00 | 0.00 | 0.00 | 42 | 1019.7 |
| 20260905054742 | 77 | 201 | 2.0 | 3.0 | 0.00 | 0.00 | 0.00 | 42 | 1019.7 |
| 20260905054242 | 78 | 191 | 2.0 | 4.0 | 0.00 | 0.00 | 0.00 | 42 | 1019.7 |
| 20260905053240 | 77 | 196 | 2.0 | 3.0 | 0.00 | 0.00 | 0.00 | 42 | 1019.6 |
| 20260905052740 | 77 | 191 | 2.0 | 3.0 | 0.00 | 0.00 | 0.00 | 42 | 1019.6 |
| 20260905052241 | 77 | 193 | 1.0 | 3.0 | 0.00 | 0.00 | 0.00 | 43 | 1019.6 |
| 20260905051741 | 77 | 195 | 1.0 | 3.0 | 0.00 | 0.00 | 0.00 | 43 | 1019.6 |
| 20260905051238 | 77 | 194 | 1.0 | 3.0 | 0.00 | 0.00 | 0.00 | 43 | 1019.6 |
| 20260905050737 | 76 | 205 | 1.0 | 3.0 | 0.00 | 0.00 | 0.00 | 43 | 1019.6 |
| 20260905050233 | 76 | 196 | 1.0 | 3.0 | 0.00 | 0.00 | 0.00 | 44 | 1019.7 |
| 20260905045732 | 76 | 196 | 1.0 | 3.0 | 0.00 | 0.00 | 0.00 | 43 | 1019.7 |
| 20260905045234 | 77 | 196 | 1.0 | 2.0 | 0.00 | 0.00 | 0.00 | 43 | 1019.6 |
| 20260905044730 | 77 | 196 | 1.0 | 2.0 | 0.00 | 0.00 | 0.00 | 42 | 1019.6 |
| 20260905044231 | 77 | 196 | 1.0 | 2.0 | 0.00 | 0.00 | 0.00 | 43 | 1019.6 |
| 20260905043228 | 77 | 196 | 1.0 | 4.0 | 0.00 | 0.00 | 0.00 | 43 | 1019.6 |
| 20260905042728 | 76 | 175 | 1.0 | 4.0 | 0.00 | 0.00 | 0.00 | 44 | 1019.7 |
| 20260905042226 | 76 | 196 | 1.0 | 2.0 | 0.00 | 0.00 | 0.00 | 44 | 1019.6 |
| 20260905041727 | 76 | 196 | 0.0 | 2.0 | 0.00 | 0.00 | 0.00 | 44 | 1019.6 |
| 20260905041227 | 76 | 196 | 0.0 | 3.0 | 0.00 | 0.00 | 0.00 | 45 | 1019.6 |
| 20260905040222 | 76 | 196 | 1.0 | 3.0 | 0.00 | 0.00 | 0.00 | 44 | 1019.4 |
| 20260905035722 | 77 | 196 | 1.0 | 2.0 | 0.00 | 0.00 | 0.00 | 44 | 1019.3 |
| 20260905035220 | 77 | 196 | 1.0 | 4.0 | 0.00 | 0.00 | 0.00 | 44 | 1019.3 |
| 20260905034717 | 77 | 196 | 1.0 | 4.0 | 0.00 | 0.00 | 0.00 | 44 | 1019.3 |
| 20260905033718 | 77 | 197 | 1.0 | 2.0 | 0.00 | 0.00 | 0.00 | 43 | 1019.3 |
| 20260905033216 | 77 | 197 | 1.0 | 3.0 | 0.00 | 0.00 | 0.00 | 43 | 1019.3 |
| 20260905032715 | 77 | 197 | 2.0 | 3.0 | 0.00 | 0.00 | 0.00 | 43 | 1019.3 |
| 20260905030714 | 78 | 185 | 0.0 | 0.0 | 0.00 | 0.00 | 0.00 | 43 | 1018.9 |
| 20260905030208 | 78 | 185 | 0.0 | 0.0 | 0.00 | 0.00 | 0.00 | 43 | 1018.9 |
| 20260905025706 | 78 | 185 | 0.0 | 0.0 | 0.00 | 0.00 | 0.00 | 43 | 1018.8 |
| 20260905025206 | 78 | 185 | 0.0 | 0.0 | 0.00 | 0.00 | 0.00 | 43 | 1018.6 |
| 20260905024707 | 78 | 185 | 0.0 | 0.0 | 0.00 | 0.00 | 0.00 | 42 | 1018.5 |
| 20260905024202 | 79 | 185 | 0.0 | 0.0 | 0.00 | 0.00 | 0.00 | 42 | 1018.5 |
| 20260905023702 | 79 | 185 | 1.0 | 3.0 | 0.00 | 0.00 | 0.00 | 41 | 1018.4 |
| 20260905022201 | 79 | 182 | 1.0 | 3.0 | 0.00 | 0.00 | 0.00 | 41 | 1018.3 |
| 20260905021700 | 80 | 240 | 0.0 | 0.0 | 0.00 | 0.00 | 0.00 | 41 | 1018.3 |
| 20260905021200 | 80 | 240 | 0.0 | 0.0 | 0.00 | 0.00 | 0.00 | 41 | 1018.2 |
| 20260905020659 | 80 | 240 | 0.0 | 0.0 | 0.00 | 0.00 | 0.00 | 41 | 1018.3 |
| 20260905020157 | 80 | 236 | 0.0 | 0.0 | 0.00 | 0.00 | 0.00 | 41 | 1018.2 |
| 20260905015655 | 80 | 191 | 0.0 | 0.0 | 0.00 | 0.00 | 0.00 | 40 | 1018.2 |
| 20260905014652 | 80 | 181 | 1.0 | 2.0 | 0.00 | 0.00 | 0.00 | 39 | 1018.1 |
| 20260905014152 | 81 | 181 | 2.0 | 5.0 | 0.00 | 0.00 | 0.00 | 39 | 1018.1 |
| 20260905013653 | 81 | 181 | 2.0 | 5.0 | 0.00 | 0.00 | 0.00 | 38 | 1018.1 |
| 20260905013153 | 81 | 189 | 1.0 | 5.0 | 0.00 | 0.00 | 0.00 | 38 | 1018.1 |
| 20260905012653 | 81 | 187 | 1.0 | 3.0 | 0.00 | 0.00 | 0.00 | 38 | 1018.1 |
| 20260905012152 | 82 | 198 | 2.0 | 5.0 | 0.00 | 0.00 | 0.00 | 37 | 1018.0 |
| 20260905011652 | 82 | 214 | 2.0 | 6.0 | 0.00 | 0.00 | 0.00 | 36 | 1018.0 |
| 20260905011152 | 82 | 244 | 1.0 | 6.0 | 0.00 | 0.00 | 0.00 | 37 | 1018.0 |
| 20260905010651 | 82 | 195 | 1.0 | 3.0 | 0.00 | 0.00 | 0.00 | 37 | 1017.9 |
| 20260905010152 | 83 | 203 | 1.0 | 3.0 | 0.00 | 0.00 | 0.00 | 35 | 1017.9 |
| 20260905005648 | 83 | 212 | 1.0 | 3.0 | 0.00 | 0.00 | 0.00 | 34 | 1017.9 |
| 20260905005146 | 84 | 187 | 2.0 | 3.0 | 0.00 | 0.00 | 0.00 | 34 | 1017.9 |
| 20260905004646 | 84 | 225 | 1.0 | 3.0 | 0.00 | 0.00 | 0.00 | 33 | 1017.9 |
| 20260905004144 | 85 | 186 | 1.0 | 3.0 | 0.00 | 0.00 | 0.00 | 33 | 1017.9 |
| 20260905003644 | 85 | 139 | 1.0 | 3.0 | 0.00 | 0.00 | 0.00 | 34 | 1017.9 |
| 20260905003144 | 85 | 204 | 1.0 | 4.0 | 0.00 | 0.00 | 0.00 | 32 | 1017.9 |
| 20260905002645 | 85 | 207 | 2.0 | 6.0 | 0.00 | 0.00 | 0.00 | 32 | 1018.0 |
| 20260905001644 | 85 | 150 | 3.0 | 6.0 | 0.00 | 0.00 | 0.00 | 33 | 1018.0 |
| 20260905001143 | 85 | 132 | 3.0 | 7.0 | 0.00 | 0.00 | 0.00 | 32 | 1018.0 |
| 20260905000642 | 85 | 172 | 3.0 | 7.0 | 0.00 | 0.00 | 0.00 | 33 | 1018.0 |
| 20260904235640 | 85 | 194 | 2.0 | 9.0 | 0.00 | 0.00 | 0.00 | 36 | 1017.9 |
| 20260904235140 | 85 | 163 | 3.0 | 10.0 | 0.00 | 0.00 | 0.00 | 35 | 1017.9 |
| 20260904234641 | 87 | 150 | 3.0 | 10.0 | 0.00 | 0.00 | 0.00 | 34 | 1017.7 |
| 20260904234140 | 88 | 136 | 2.0 | 5.0 | 0.00 | 0.00 | 0.00 | 33 | 1017.7 |
| 20260904233638 | 87 | 115 | 2.0 | 5.0 | 0.00 | 0.00 | 0.00 | 34 | 1017.7 |
| 20260904233141 | 87 | 100 | 2.0 | 3.0 | 0.00 | 0.00 | 0.00 | 35 | 1017.9 |
| 20260904232136 | 85 | 134 | 2.0 | 6.0 | 0.00 | 0.00 | 0.00 | 36 | 1017.9 |
| 20260904231637 | 85 | 139 | 3.0 | 6.0 | 0.00 | 0.00 | 0.00 | 37 | 1018.0 |
| 20260904231136 | 85 | 135 | 3.0 | 6.0 | 0.00 | 0.00 | 0.00 | 37 | 1018.0 |
| 20260904230636 | 85 | 155 | 2.0 | 6.0 | 0.00 | 0.00 | 0.00 | 37 | 1018.1 |
| 20260904230136 | 85 | 126 | 2.0 | 6.0 | 0.00 | 0.00 | 0.00 | 39 | 1018.1 |
| 20260904225634 | 86 | 121 | 4.0 | 8.0 | 0.00 | 0.00 | 0.00 | 37 | 1018.2 |
| 20260904225132 | 86 | 167 | 4.0 | 8.0 | 0.00 | 0.00 | 0.00 | 37 | 1018.2 |
| 20260904224632 | 86 | 133 | 3.0 | 7.0 | 0.00 | 0.00 | 0.00 | 36 | 1018.2 |
| 20260904223632 | 85 | 196 | 3.0 | 7.0 | 0.00 | 0.00 | 0.00 | 37 | 1018.2 |
| 20260904223132 | 85 | 185 | 3.0 | 7.0 | 0.00 | 0.00 | 0.00 | 37 | 1018.2 |
| 20260904222630 | 85 | 182 | 3.0 | 6.0 | 0.00 | 0.00 | 0.00 | 37 | 1018.3 |
| 20260904222129 | 85 | 161 | 3.0 | 9.0 | 0.00 | 0.00 | 0.00 | 37 | 1018.3 |
| 20260904221629 | 85 | 168 | 3.0 | 9.0 | 0.00 | 0.00 | 0.00 | 37 | 1018.3 |
| 20260904221128 | 85 | 132 | 3.0 | 11.0 | 0.00 | 0.00 | 0.00 | 39 | 1018.4 |
| 20260904220628 | 85 | 175 | 4.0 | 11.0 | 0.00 | 0.00 | 0.00 | 36 | 1018.4 |
| 20260904220127 | 86 | 162 | 4.0 | 10.0 | 0.00 | 0.00 | 0.00 | 36 | 1018.4 |
| 20260904215626 | 85 | 180 | 4.0 | 10.0 | 0.00 | 0.00 | 0.00 | 38 | 1018.5 |
| 20260904214626 | 87 | 150 | 4.0 | 10.0 | 0.00 | 0.00 | 0.00 | 34 | 1018.5 |
| 20260904214126 | 87 | 150 | 3.0 | 8.0 | 0.00 | 0.00 | 0.00 | 36 | 1018.4 |
| 20260904213626 | 87 | 107 | 3.0 | 8.0 | 0.00 | 0.00 | 0.00 | 36 | 1018.4 |
| 20260904213126 | 86 | 124 | 3.0 | 8.0 | 0.00 | 0.00 | 0.00 | 36 | 1018.5 |
| 20260904212626 | 86 | 123 | 3.0 | 6.0 | 0.00 | 0.00 | 0.00 | 37 | 1018.4 |
| 20260904211621 | 87 | 134 | 4.0 | 12.0 | 0.00 | 0.00 | 0.00 | 36 | 1018.6 |
| 20260904211120 | 87 | 136 | 3.0 | 8.0 | 0.00 | 0.00 | 0.00 | 36 | 1018.8 |
| 20260904210623 | 87 | 138 | 3.0 | 7.0 | 0.00 | 0.00 | 0.00 | 34 | 1018.9 |
| 20260904210118 | 87 | 92 | 4.0 | 10.0 | 0.00 | 0.00 | 0.00 | 35 | 1018.9 |
| 20260904205614 | 87 | 143 | 4.0 | 10.0 | 0.00 | 0.00 | 0.00 | 35 | 1019.0 |
| 20260904205114 | 87 | 144 | 2.0 | 9.0 | 0.00 | 0.00 | 0.00 | 36 | 1018.9 |
| 20260904204614 | 87 | 184 | 2.0 | 10.0 | 0.00 | 0.00 | 0.00 | 36 | 1019.0 |
| 20260904204112 | 86 | 186 | 4.0 | 10.0 | 0.00 | 0.00 | 0.00 | 35 | 1019.0 |
| 20260904203611 | 87 | 117 | 4.0 | 17.0 | 0.00 | 0.00 | 0.00 | 35 | 1019.1 |
| 20260904202606 | 86 | 152 | 5.0 | 13.0 | 0.00 | 0.00 | 0.00 | 36 | 1019.1 |
| 20260904202107 | 86 | 115 | 5.0 | 13.0 | 0.00 | 0.00 | 0.00 | 36 | 1019.1 |
| 20260904201607 | 86 | 134 | 4.0 | 11.0 | 0.00 | 0.00 | 0.00 | 34 | 1019.1 |
| 20260904201106 | 87 | 116 | 4.0 | 11.0 | 0.00 | 0.00 | 0.00 | 36 | 1019.3 |
| 20260904200606 | 86 | 161 | 4.0 | 10.0 | 0.00 | 0.00 | 0.00 | 36 | 1019.2 |
| 20260904200108 | 86 | 165 | 4.0 | 8.0 | 0.00 | 0.00 | 0.00 | 38 | 1019.3 |
| 20260904195604 | 86 | 132 | 4.0 | 9.0 | 0.00 | 0.00 | 0.00 | 39 | 1019.3 |
| 20260904195104 | 85 | 136 | 4.0 | 9.0 | 0.00 | 0.00 | 0.00 | 38 | 1019.3 |
| 20260904194602 | 85 | 155 | 5.0 | 16.0 | 0.00 | 0.00 | 0.00 | 37 | 1019.6 |
| 20260904194102 | 85 | 137 | 6.0 | 16.0 | 0.00 | 0.00 | 0.00 | 36 | 1019.6 |
| 20260904193602 | 85 | 148 | 5.0 | 10.0 | 0.00 | 0.00 | 0.00 | 40 | 1019.7 |
| 20260904192557 | 84 | 150 | 4.0 | 9.0 | 0.00 | 0.00 | 0.00 | 42 | 1019.8 |
| 20260904192056 | 84 | 107 | 4.0 | 8.0 | 0.00 | 0.00 | 0.00 | 39 | 1019.9 |
| 20260904191557 | 84 | 118 | 3.0 | 8.0 | 0.00 | 0.00 | 0.00 | 41 | 1020.0 |
| 20260904191054 | 84 | 125 | 3.0 | 10.0 | 0.00 | 0.00 | 0.00 | 43 | 1019.9 |
| 20260904190555 | 84 | 161 | 3.0 | 10.0 | 0.00 | 0.00 | 0.00 | 43 | 1019.9 |
| 20260904185554 | 83 | 175 | 4.0 | 7.0 | 0.00 | 0.00 | 0.00 | 44 | 1020.1 |
| 20260904185054 | 83 | 139 | 4.0 | 10.0 | 0.00 | 0.00 | 0.00 | 45 | 1020.1 |
| 20260904184554 | 83 | 153 | 5.0 | 10.0 | 0.00 | 0.00 | 0.00 | 44 | 1020.2 |
| 20260904184054 | 83 | 138 | 4.0 | 12.0 | 0.00 | 0.00 | 0.00 | 43 | 1020.2 |
| 20260904183052 | 83 | 120 | 4.0 | 9.0 | 0.00 | 0.00 | 0.00 | 46 | 1020.4 |
| 20260904182552 | 83 | 135 | 4.0 | 10.0 | 0.00 | 0.00 | 0.00 | 47 | 1020.5 |
| 20260904181552 | 82 | 138 | 4.0 | 8.0 | 0.00 | 0.00 | 0.00 | 47 | 1020.6 |
| 20260904181052 | 83 | 121 | 4.0 | 10.0 | 0.00 | 0.00 | 0.00 | 46 | 1020.6 |
| 20260904180550 | 83 | 130 | 4.0 | 10.0 | 0.00 | 0.00 | 0.00 | 47 | 1020.6 |
| 20260904175551 | 83 | 97 | 3.0 | 12.0 | 0.00 | 0.00 | 0.00 | 45 | 1020.6 |
| 20260904175050 | 83 | 145 | 3.0 | 12.0 | 0.00 | 0.00 | 0.00 | 47 | 1020.6 |
| 20260904174549 | 82 | 151 | 2.0 | 12.0 | 0.00 | 0.00 | 0.00 | 46 | 1020.6 |
| 20260904174047 | 82 | 173 | 4.0 | 10.0 | 0.00 | 0.00 | 0.00 | 49 | 1020.8 |
| 20260904173042 | 82 | 153 | 4.0 | 10.0 | 0.00 | 0.00 | 0.00 | 48 | 1020.7 |
| 20260904172542 | 81 | 147 | 3.0 | 11.0 | 0.00 | 0.00 | 0.00 | 51 | 1020.7 |
| 20260904172042 | 80 | 144 | 3.0 | 11.0 | 0.00 | 0.00 | 0.00 | 52 | 1020.9 |
| 20260904171542 | 80 | 148 | 2.0 | 7.0 | 0.00 | 0.00 | 0.00 | 53 | 1020.8 |
| 20260904171042 | 79 | 141 | 2.0 | 7.0 | 0.00 | 0.00 | 0.00 | 52 | 1020.9 |
| 20260904170542 | 78 | 193 | 1.0 | 6.0 | 0.00 | 0.00 | 0.00 | 54 | 1020.9 |
| 20260904170040 | 78 | 154 | 2.0 | 6.0 | 0.00 | 0.00 | 0.00 | 54 | 1020.9 |
| 20260904165540 | 79 | 141 | 3.0 | 7.0 | 0.00 | 0.00 | 0.00 | 53 | 1020.9 |
| 20260904165040 | 80 | 168 | 2.0 | 7.0 | 0.00 | 0.00 | 0.00 | 53 | 1020.9 |
| 20260904164540 | 79 | 125 | 1.0 | 4.0 | 0.00 | 0.00 | 0.00 | 54 | 1020.8 |
| 20260904163538 | 78 | 132 | 2.0 | 7.0 | 0.00 | 0.00 | 0.00 | 56 | 1020.8 |
| 20260904163036 | 78 | 134 | 3.0 | 9.0 | 0.00 | 0.00 | 0.00 | 54 | 1020.8 |
| 20260904162538 | 79 | 188 | 3.0 | 9.0 | 0.00 | 0.00 | 0.00 | 54 | 1020.7 |
| 20260904162036 | 79 | 126 | 2.0 | 6.0 | 0.00 | 0.00 | 0.00 | 55 | 1020.6 |
| 20260904161536 | 79 | 135 | 3.0 | 6.0 | 0.00 | 0.00 | 0.00 | 54 | 1020.7 |
| 20260904161036 | 79 | 113 | 3.0 | 7.0 | 0.00 | 0.00 | 0.00 | 55 | 1020.7 |
| 20260904160036 | 79 | 134 | 4.0 | 9.0 | 0.00 | 0.00 | 0.00 | 54 | 1020.7 |
| 20260904155537 | 78 | 110 | 3.0 | 9.0 | 0.00 | 0.00 | 0.00 | 56 | 1020.7 |
| 20260904155036 | 78 | 126 | 4.0 | 8.0 | 0.00 | 0.00 | 0.00 | 55 | 1020.7 |
| 20260904154036 | 78 | 109 | 4.0 | 8.0 | 0.00 | 0.00 | 0.00 | 57 | 1020.6 |
| 20260904153536 | 78 | 115 | 3.0 | 7.0 | 0.00 | 0.00 | 0.00 | 57 | 1020.6 |
| 20260904153036 | 78 | 121 | 3.0 | 7.0 | 0.00 | 0.00 | 0.00 | 57 | 1020.6 |
| 20260904152035 | 77 | 149 | 2.0 | 7.0 | 0.00 | 0.00 | 0.00 | 58 | 1020.5 |
| 20260904151534 | 77 | 118 | 2.0 | 4.0 | 0.00 | 0.00 | 0.00 | 59 | 1020.5 |
| 20260904150534 | 76 | 116 | 2.0 | 4.0 | 0.00 | 0.00 | 0.00 | 60 | 1020.5 |
| 20260904150035 | 76 | 146 | 2.0 | 6.0 | 0.00 | 0.00 | 0.00 | 58 | 1020.5 |
| 20260904145532 | 76 | 119 | 1.0 | 6.0 | 0.00 | 0.00 | 0.00 | 59 | 1020.5 |
| 20260904144530 | 75 | 123 | 1.0 | 2.0 | 0.00 | 0.00 | 0.00 | 60 | 1020.5 |
| 20260904144028 | 75 | 131 | 0.0 | 2.0 | 0.00 | 0.00 | 0.00 | 62 | 1020.5 |
| 20260904143530 | 74 | 186 | 0.0 | 2.0 | 0.00 | 0.00 | 0.00 | 62 | 1020.4 |
| 20260904143025 | 73 | 186 | 0.0 | 2.0 | 0.00 | 0.00 | 0.00 | 62 | 1020.4 |
| 20260904142520 | 73 | 186 | 0.0 | 2.0 | 0.00 | 0.00 | 0.00 | 63 | 1020.2 |
| 20260904142020 | 72 | 186 | 0.0 | 0.0 | 0.00 | 0.00 | 0.00 | 65 | 1020.2 |
| 20260904141518 | 70 | 186 | 0.0 | 0.0 | 0.00 | 0.00 | 0.00 | 67 | 1020.2 |
| 20260904141016 | 70 | 186 | 0.0 | 0.0 | 0.00 | 0.00 | 0.00 | 68 | 1020.1 |
| 20260904140516 | 69 | 186 | 0.0 | 0.0 | 0.00 | 0.00 | 0.00 | 68 | 1020.1 |
| 20260904140014 | 69 | 186 | 0.0 | 0.0 | 0.00 | 0.00 | 0.00 | 68 | 1020.0 |
| 20260904135511 | 69 | 186 | 0.0 | 0.0 | 0.00 | 0.00 | 0.00 | 69 | 1019.9 |
| 20260904135012 | 69 | 186 | 0.0 | 0.0 | 0.00 | 0.00 | 0.00 | 67 | 1019.8 |
| 20260904134510 | 68 | 186 | 0.0 | 0.0 | 0.00 | 0.00 | 0.00 | 67 | 1019.8 |
| 20260904133504 | 68 | 186 | 0.0 | 0.0 | 0.00 | 0.00 | 0.00 | 68 | 1019.7 |
| 20260904133002 | 67 | 186 | 0.0 | 0.0 | 0.00 | 0.00 | 0.00 | 69 | 1019.7 |
| 20260904132000 | 67 | 186 | 0.0 | 0.0 | 0.00 | 0.00 | 0.00 | 70 | 1019.6 |
| 20260904131458 | 67 | 186 | 0.0 | 0.0 | 0.00 | 0.00 | 0.00 | 69 | 1019.4 |
| 20260904130957 | 67 | 186 | 0.0 | 0.0 | 0.00 | 0.00 | 0.00 | 69 | 1019.3 |
| 20260904130456 | 67 | 186 | 0.0 | 0.0 | 0.00 | 0.00 | 0.00 | 70 | 1019.2 |
| 20260904125956 | 67 | 186 | 0.0 | 1.0 | 0.00 | 0.00 | 0.00 | 70 | 1019.2 |
| 20260904125456 | 67 | 186 | 0.0 | 1.0 | 0.00 | 0.00 | 0.00 | 71 | 1019.2 |
| 20260904124959 | 67 | 186 | 0.0 | 1.0 | 0.00 | 0.00 | 0.00 | 71 | 1019.1 |
| 20260904123954 | 67 | 186 | 1.0 | 2.0 | 0.00 | 0.00 | 0.00 | 71 | 1019.1 |
| 20260904123452 | 67 | 186 | 1.0 | 3.0 | 0.00 | 0.00 | 0.00 | 71 | 1019.0 |
| 20260904122952 | 67 | 186 | 1.0 | 3.0 | 0.00 | 0.00 | 0.00 | 71 | 1019.0 |
| 20260904122450 | 68 | 186 | 1.0 | 3.0 | 0.00 | 0.00 | 0.00 | 72 | 1018.9 |
| 20260904121949 | 68 | 186 | 1.0 | 3.0 | 0.00 | 0.00 | 0.00 | 71 | 1018.9 |
| 20260904121448 | 68 | 186 | 1.0 | 2.0 | 0.00 | 0.00 | 0.00 | 71 | 1018.8 |
| 20260904120948 | 68 | 186 | 1.0 | 3.0 | 0.00 | 0.00 | 0.00 | 72 | 1018.8 |
| 20260904120448 | 68 | 186 | 0.0 | 3.0 | 0.00 | 0.00 | 0.00 | 72 | 1018.8 |
| 20260904115948 | 68 | 186 | 0.0 | 2.0 | 0.00 | 0.00 | 0.00 | 72 | 1018.8 |
| 20260904115446 | 68 | 186 | 0.0 | 0.0 | 0.00 | 0.00 | 0.00 | 72 | 1018.6 |
| 20260904114944 | 68 | 186 | 0.0 | 0.0 | 0.00 | 0.00 | 0.00 | 72 | 1018.8 |
| 20260904114444 | 68 | 186 | 0.0 | 0.0 | 0.00 | 0.00 | 0.00 | 71 | 1018.8 |
| 20260904113944 | 69 | 186 | 0.0 | 0.0 | 0.00 | 0.00 | 0.00 | 71 | 1018.8 |
| 20260904113443 | 69 | 186 | 0.0 | 0.0 | 0.00 | 0.00 | 0.00 | 71 | 1018.8 |
| 20260904112943 | 69 | 186 | 0.0 | 0.0 | 0.00 | 0.00 | 0.00 | 70 | 1018.8 |
| 20260904112444 | 69 | 186 | 0.0 | 1.0 | 0.00 | 0.00 | 0.00 | 70 | 1018.8 |
| 20260904111944 | 70 | 186 | 0.0 | 1.0 | 0.00 | 0.00 | 0.00 | 69 | 1018.8 |
| 20260904110942 | 70 | 186 | 0.0 | 3.0 | 0.00 | 0.00 | 0.00 | 68 | 1018.6 |
| 20260904110440 | 71 | 186 | 0.0 | 3.0 | 0.00 | 0.00 | 0.00 | 68 | 1018.5 |
| 20260904105940 | 71 | 186 | 1.0 | 4.0 | 0.00 | 0.00 | 0.00 | 67 | 1018.4 |
| 20260904104937 | 71 | 193 | 2.0 | 7.0 | 0.00 | 0.00 | 0.00 | 67 | 1018.4 |
| 20260904104438 | 71 | 184 | 1.0 | 7.0 | 0.00 | 0.00 | 0.00 | 67 | 1018.3 |
| 20260904103938 | 71 | 110 | 1.0 | 5.0 | 0.00 | 0.00 | 0.00 | 68 | 1018.2 |
| 20260904103437 | 71 | 156 | 2.0 | 5.0 | 0.00 | 0.00 | 0.00 | 68 | 1018.3 |
| 20260904102938 | 70 | 174 | 1.0 | 5.0 | 0.00 | 0.00 | 0.00 | 69 | 1018.3 |
| 20260904102438 | 70 | 189 | 1.0 | 3.0 | 0.00 | 0.00 | 0.00 | 69 | 1018.2 |
| 20260904101938 | 70 | 149 | 0.0 | 0.0 | 0.00 | 0.00 | 0.00 | 69 | 1018.2 |
| 20260904101436 | 70 | 161 | 0.0 | 0.0 | 0.00 | 0.00 | 0.00 | 69 | 1018.2 |
| 20260904100935 | 70 | 161 | 0.0 | 0.0 | 0.00 | 0.00 | 0.00 | 69 | 1018.0 |
| 20260904095933 | 71 | 165 | 0.0 | 0.0 | 0.00 | 0.00 | 0.00 | 68 | 1018.0 |